Regional Weather Roundup
Issued by NWS

Home | Current Version | Previous Version | Text Only | Print | Product List | Glossary Off
Versions: 1 2 3 4 5 6 7 8 9 10 11 12 13 14 15 16 17 18 19 20 21 22 23 24 25 26 27 28 29 30 31 32 33 34 35 36 37 38 39 40 41 42 43 44 45 46 47 48 49 50

000
ASUS43 KFSD 310910
RWRSD

WEATHER ROUNDUP FOR SOUTH DAKOTA
NATIONAL WEATHER SERVICE SIOUX FALLS SD
400 AM CDT FRI OCT 31 2014

NOTE: "FAIR" INDICATES FEW OR NO CLOUDS BELOW 12,000 FEET WITH NO
SIGNIFICANT WEATHER AND/OR OBSTRUCTIONS TO VISIBILITY.


SDZ001>005-009-010-012>017-311000-
NORTHWEST AND NORTH CENTRAL SOUTH DAKOTA

CITY           SKY/WX    TMP DP  RH WIND       PRES   REMARKS
BUFFALO          N/A     31  28  89 SE18      30.34F WCI  19
FAITH            N/A     28  24  85 SE14      30.50F WCI  17
MOBRIDGE       PTCLDY    20  16  84 S3        30.56R
$$

SDZ012>016-024>037-041>051-057-063-072>074-311000-
SOUTHWEST AND SOUTH CENTRAL SOUTH DAKOTA

CITY           SKY/WX    TMP DP  RH WIND       PRES   REMARKS
RAPID CTY ARPT FOG       30  29  96 SE12      30.46F VSB 1   WCI  20
PIERRE         PTCLDY    19  15  84 CALM      30.57S
CUSTER         FOG       28  27  96 CALM      30.37F VSB 3/4
ELLSWORTH AFB  FOG       31  30  96 S16       30.44  VSB 3/4 WCI  20
PHILIP         CLOUDY    31  24  75 E12       30.54F WCI  22
PINE RIDGE     CLOUDY    29  28  96 SE7       30.47F WCI  22
SPEARFISH      FOG       28  28 100 NW5       30.36F VSB 1/4 WCI  23
WINNER         FAIR      23  18  81 CALM      30.56S
$$

SDZ004>011-016>023-039-040-311000-
NORTHEAST SOUTH DAKOTA

CITY           SKY/WX    TMP DP  RH WIND       PRES   REMARKS
ABERDEEN       PTCLDY    17  13  84 N6        30.60S WCI   9
WATERTOWN      CLEAR     18  15  88 N7        30.52R WCI   9
SISSETON         N/A     19  17  92 N7        30.57S WCI  10
$$

SDZ017-020-022-023-036>040-048>070-311000-
SOUTHEAST SOUTH DAKOTA

CITY           SKY/WX    TMP DP  RH WIND       PRES   REMARKS
SIOUX FALLS    CLEAR     23  18  81 N7        30.52R WCI  15
HURON          CLEAR     14  11  87 N6        30.58S WCI   5
CHAMBERLAIN    PTCLDY    21  17  85 NW3       30.58R
MITCHELL       CLEAR     22  19  89 N8        30.58R WCI  12
YANKTON        CLEAR     27  19  74 NW8       30.56R WCI  18
$$

ABBREVIATIONS USED IN REMARKS
   TC - TEMPERATURE IN CELSIUS
  WCI - WIND CHILL INDEX
   HX - HEAT INDEX
  VSB - VISIBILITY




USA.gov is the U.S. government's official web portal to all federal, state and local government web resources and services.